User: anonymous   Login
Location: Oshawa
(43.9000°N, 78.8670°W)
Time: 22:24:52
(UTC-05:00)
Language:

IDEFIX/ARIANE 42P - Orbit

View from above orbital plane
View from above orbital plane
View from above satellite
View from above satellite

Ground track
Ground track

The orbit data is extracted from the following two-line orbital elements,

1 27422U 02021B   14326.12443803  .00000215  00000-0  10078-3 0  6470
2 27422 098.2816 000.9558 0013494 134.2634 289.0306 14.29089649652692
Epoch (UTC): 22 November 2014 02:59:11
Eccentricity: 0.0013494
inclination: 98.2816°
perigee height: 785 km
apogee height: 804 km
right ascension of ascending node: 0.9558°
argument of perigee: 134.2634°
revolutions per day: 14.29089649
mean anomaly at epoch: 289.0306°
orbit number at epoch: 65269

The dashed part of the orbit path shows where the satellite is in the earth's shadow,  

DLR